Location: Wald
(31.7579°N, 86.6655°W)
Time: 21:12:48
(UTC+00:00)

Cosmos 2327 Rocket - Pass Details

Date: 14 July 2020
Orbit: 944 x 1008 km, 83.0° (Epoch: 13 August)

Event Time Altitude Azimuth Distance (km) Brightness Sun altitude
Exits shadow 02:57:33 43° 144° (SE) 1,312 4.7 -22.1°
Maximum altitude 02:59:16 58° 92° (E) 1,106 4.5 -22.4°
Drops below altitude 10° 03:05:14 10° 15° (NNE) 2,677 7.2 -23.3°
Sets 03:07:45 0° 11° (NNE) 3,620 8.0 -23.6°
